Location: Lane
(33.5226°N, 79.8788°W)
Time: 10:37:58
(UTC+00:00)

Altair - Pass Details

Date: 06 October 2022
Orbit: 1501 x 1682 km, 47.2° (Epoch: 30 November)

Event Time Altitude Azimuth Distance (km) Brightness Sun altitude
Rises 15:25:28 0° 306° (NW) 4,897 9.7 44.3°
Reaches altitude 10° 15:28:36 10° 307° (NW) 3,923 9.3 44.7°
Maximum altitude 15:38:47 84° 37° (NE) 1,693 8.6 45.9°
Drops below altitude 10° 15:48:57 10° 125° (SE) 3,921 10.5 47.0°
Sets 15:52:05 0° 126° (SE) 4,894 10.7 47.3°
